ARG1885 SAWH-SAEZ

Flight info

Callsign ARG1885
Flight time 2h 59m
Altitude 37000
Route GRA2B GRA UT662 DIL UP664 GBE GBE7X
Aircraft B738/M-SDE2E3FGHIRWXY/LB1

Departure

Time 2026-05-08 22:56
Airport Ushuaia - Malvinas Argentinas International Airport (SAWH)

Arrival

Time 2026-05-09 01:56
Airport Ezeiza International Airport - Ministro Pistarini (SAEZ)
Time Latitude Longitude Altitude Speed Heading
2026-05-08 22:08 -54.84018 -68.31242 63 ft 0 kts 11°
2026-05-08 22:44 -54.84029 -68.31246 59 ft 2 kts 10°
2026-05-08 22:44 -54.84044 -68.31252 59 ft 2 kts 11°
2026-05-08 22:44 -54.84058 -68.31256 58 ft 2 kts 15°
2026-05-08 22:45 -54.84072 -68.31265 58 ft 2 kts 23°
2026-05-08 22:45 -54.84086 -68.31278 58 ft 2 kts 32°
2026-05-08 22:45 -54.84098 -68.31292 57 ft 2 kts 39°
2026-05-08 22:45 -54.84109 -68.31308 57 ft 1 kts 46°
2026-05-08 22:46 -54.84111 -68.31313 57 ft 0 kts 48°
2026-05-08 22:46 -54.84096 -68.31281 57 ft 4 kts 62°
2026-05-08 22:46 -54.84092 -68.31248 58 ft 1 kts 85°
2026-05-08 22:46 -54.84092 -68.31246 58 ft 0 kts 85°
2026-05-08 22:50 -54.84092 -68.31243 57 ft 1 kts 85°
2026-05-08 22:50 -54.84091 -68.31213 58 ft 3 kts 85°
2026-05-08 22:50 -54.84089 -68.31164 59 ft 4 kts 85°
2026-05-08 22:50 -54.84085 -68.31098 60 ft 6 kts 86°
2026-05-08 22:51 -54.84087 -68.31019 62 ft 7 kts 110°
2026-05-08 22:51 -54.84138 -68.30970 62 ft 10 kts 174°
2026-05-08 22:51 -54.84230 -68.30957 61 ft 15 kts 175°
2026-05-08 22:51 -54.84341 -68.30940 60 ft 14 kts 162°
2026-05-08 22:52 -54.84375 -68.30787 62 ft 15 kts 85°
2026-05-08 22:52 -54.84367 -68.30582 64 ft 18 kts 86°
2026-05-08 22:52 -54.84358 -68.30332 64 ft 22 kts 85°
2026-05-08 22:52 -54.84346 -68.30030 61 ft 28 kts 86°
2026-05-08 22:53 -54.84331 -68.29653 56 ft 34 kts 85°
2026-05-08 22:53 -54.84316 -68.29221 49 ft 37 kts 86°
2026-05-08 22:53 -54.84296 -68.28763 42 ft 38 kts 83°
2026-05-08 22:53 -54.84281 -68.28304 38 ft 38 kts 86°
2026-05-08 22:54 -54.84267 -68.27834 36 ft 39 kts 85°
2026-05-08 22:54 -54.84227 -68.27473 33 ft 22 kts 69°
2026-05-08 22:54 -54.84207 -68.27289 30 ft 9 kts 93°
2026-05-08 22:54 -54.84248 -68.27274 30 ft 7 kts 248°
2026-05-08 22:55 -54.84246 -68.27351 31 ft 4 kts 271°
2026-05-08 22:55 -54.84248 -68.27395 31 ft 2 kts 265°
2026-05-08 22:55 -54.84249 -68.27422 32 ft 2 kts 266°
2026-05-08 22:55 -54.84253 -68.27523 33 ft 20 kts 266°
2026-05-08 22:56 -54.84273 -68.28060 37 ft 74 kts 267°
2026-05-08 22:56 -54.84320 -68.29324 51 ft 131 kts 266°
2026-05-08 22:56 -54.84399 -68.31166 65 ft 174 kts 267°
2026-05-08 22:56 -54.84569 -68.33207 747 ft 164 kts 264°
2026-05-08 22:57 -54.85005 -68.35088 1216 ft 182 kts 236°
2026-05-08 22:57 -54.86033 -68.36459 1721 ft 193 kts 202°
2026-05-08 22:57 -54.87362 -68.36927 2128 ft 202 kts 180°
2026-05-08 22:57 -54.88758 -68.36567 2677 ft 201 kts 158°
2026-05-08 22:58 -54.89922 -68.35348 3180 ft 199 kts 129°
2026-05-08 22:58 -54.90588 -68.33344 3765 ft 191 kts 104°
2026-05-08 22:58 -54.90844 -68.31080 4248 ft 192 kts 88°
2026-05-08 22:58 -54.90567 -68.28854 4715 ft 189 kts 62°
2026-05-08 22:59 -54.90036 -68.26805 5192 ft 194 kts 68°
2026-05-08 22:59 -54.89703 -68.24487 5692 ft 197 kts 74°
2026-05-08 22:59 -54.89410 -68.22151 6172 ft 200 kts 73°
2026-05-08 22:59 -54.89070 -68.19796 6673 ft 202 kts 71°
2026-05-08 23:00 -54.88696 -68.17445 7189 ft 203 kts 70°
2026-05-08 23:00 -54.88318 -68.15109 7683 ft 206 kts 70°
2026-05-08 23:00 -54.87937 -68.12706 8192 ft 208 kts 72°
2026-05-08 23:00 -54.87554 -68.10296 8694 ft 210 kts 71°
2026-05-08 23:01 -54.87195 -68.07844 9197 ft 213 kts 78°
2026-05-08 23:01 -54.87240 -68.05250 9538 ft 226 kts 100°
2026-05-08 23:01 -54.87698 -68.02527 9782 ft 242 kts 105°
2026-05-08 23:01 -54.88210 -67.99638 10104 ft 255 kts 104°
2026-05-08 23:02 -54.88689 -67.96596 10303 ft 274 kts 103°
2026-05-08 23:02 -54.89170 -67.93347 10714 ft 286 kts 103°
2026-05-08 23:02 -54.89675 -67.89912 11047 ft 301 kts 103°
2026-05-08 23:02 -54.90102 -67.86268 11380 ft 313 kts 92°
2026-05-08 23:03 -54.89809 -67.82491 11648 ft 324 kts 69°
2026-05-08 23:03 -54.88682 -67.79064 11896 ft 337 kts 49°
2026-05-08 23:03 -54.86944 -67.76262 12277 ft 347 kts 35°
2026-05-08 23:03 -54.84839 -67.74219 12832 ft 350 kts 18°
2026-05-08 23:04 -54.82422 -67.73654 13417 ft 353 kts 354°
2026-05-08 23:04 -54.80067 -67.74769 13967 ft 357 kts 334°
2026-05-08 23:04 -54.77896 -67.76787 14506 ft 363 kts 328°
2026-05-08 23:04 -54.75716 -67.79068 15044 ft 370 kts 333°
2026-05-08 23:05 -54.73253 -67.80418 15717 ft 374 kts 350°
2026-05-08 23:05 -54.70692 -67.80769 16313 ft 378 kts 360°
2026-05-08 23:05 -54.68028 -67.80620 16845 ft 384 kts
2026-05-08 23:05 -54.65361 -67.80294 17450 ft 388 kts
2026-05-08 23:06 -54.62660 -67.79953 17951 ft 394 kts
2026-05-08 23:06 -54.59930 -67.79652 18529 ft 398 kts
2026-05-08 23:06 -54.57129 -67.79397 19070 ft 402 kts
2026-05-08 23:06 -54.54340 -67.79184 19576 ft 408 kts
2026-05-08 23:07 -54.51520 -67.78994 20198 ft 409 kts
2026-05-08 23:07 -54.48652 -67.78816 20753 ft 413 kts
2026-05-08 23:07 -54.45780 -67.78645 21239 ft 417 kts
2026-05-08 23:07 -54.42876 -67.78477 21744 ft 421 kts
2026-05-08 23:08 -54.39943 -67.78309 22247 ft 425 kts
2026-05-08 23:08 -54.36985 -67.78136 22652 ft 431 kts
2026-05-08 23:08 -54.33963 -67.77953 23136 ft 435 kts
2026-05-08 23:08 -54.30933 -67.77766 23627 ft 438 kts
2026-05-08 23:09 -54.27872 -67.77579 24095 ft 441 kts
2026-05-08 23:09 -54.24806 -67.77394 24479 ft 446 kts
2026-05-08 23:09 -54.21685 -67.77208 24797 ft 452 kts
2026-05-08 23:09 -54.18556 -67.77021 25172 ft 456 kts
2026-05-08 23:10 -54.15367 -67.76832 25516 ft 462 kts
2026-05-08 23:10 -54.12129 -67.76640 25999 ft 463 kts
2026-05-08 23:10 -54.08897 -67.76447 26288 ft 470 kts
2026-05-08 23:10 -54.05616 -67.76250 26677 ft 474 kts
2026-05-08 23:11 -54.02346 -67.76051 26993 ft 479 kts
2026-05-08 23:11 -53.98974 -67.75854 27373 ft 482 kts
2026-05-08 23:11 -53.95602 -67.75657 27811 ft 484 kts
2026-05-08 23:11 -53.92184 -67.75459 28067 ft 491 kts
2026-05-08 23:12 -53.88745 -67.75260 28361 ft 496 kts
2026-05-08 23:12 -53.85342 -67.75060 28713 ft 498 kts 360°
2026-05-08 23:12 -53.81853 -67.74778 29029 ft 502 kts
2026-05-08 23:12 -53.78373 -67.73998 29392 ft 506 kts 11°
2026-05-08 23:13 -53.74975 -67.72433 29665 ft 510 kts 20°
2026-05-08 23:13 -53.71735 -67.70152 30033 ft 511 kts 26°
2026-05-08 23:13 -53.68564 -67.67404 30426 ft 511 kts 30°
2026-05-08 23:13 -53.65448 -67.64439 30898 ft 510 kts 32°
2026-05-08 23:14 -53.62396 -67.61443 31138 ft 514 kts 32°
2026-05-08 23:14 -53.59328 -67.58424 31601 ft 513 kts 32°
2026-05-08 23:14 -53.56246 -67.55424 31889 ft 516 kts 32°
2026-05-08 23:14 -53.53122 -67.52439 32241 ft 517 kts 31°
2026-05-08 23:15 -53.49997 -67.49503 32618 ft 517 kts 31°
2026-05-08 23:15 -53.46878 -67.46609 32955 ft 518 kts 31°
2026-05-08 23:15 -53.43717 -67.43699 33223 ft 520 kts 31°
2026-05-08 23:15 -53.40575 -67.40810 33543 ft 521 kts 30°
2026-05-08 23:16 -53.37358 -67.37882 33864 ft 522 kts 31°
2026-05-08 23:16 -53.34173 -67.35017 34186 ft 523 kts 30°
2026-05-08 23:16 -53.31024 -67.32195 34489 ft 523 kts 30°
2026-05-08 23:16 -53.27808 -67.29296 34806 ft 524 kts 30°
2026-05-08 23:17 -53.24592 -67.26405 35149 ft 523 kts 30°
2026-05-08 23:17 -53.21376 -67.23526 35376 ft 526 kts 30°
2026-05-08 23:17 -53.18206 -67.20700 35732 ft 525 kts 30°
2026-05-08 23:17 -53.14960 -67.17808 36095 ft 524 kts 29°
2026-05-08 23:18 -53.11756 -67.14970 36422 ft 523 kts 29°
2026-05-08 23:18 -53.08598 -67.12176 36726 ft 523 kts 30°
2026-05-08 23:18 -53.05390 -67.09341 37022 ft 523 kts 29°
2026-05-08 23:18 -53.02165 -67.06491 37324 ft 523 kts 29°
2026-05-08 23:19 -52.98981 -67.03706 37430 ft 525 kts 30°
2026-05-08 23:19 -52.95770 -67.00887 37442 ft 525 kts 30°
2026-05-08 23:19 -52.89337 -66.95204 37456 ft 521 kts 30°
2026-05-08 23:20 -52.82963 -66.89591 37459 ft 524 kts 30°
2026-05-08 23:20 -52.76541 -66.83926 37459 ft 522 kts 30°
2026-05-08 23:21 -52.70164 -66.78304 37457 ft 523 kts 30°
2026-05-08 23:21 -52.63778 -66.72653 37465 ft 521 kts 31°
2026-05-08 23:22 -52.57421 -66.67052 37458 ft 523 kts 30°
2026-05-08 23:22 -52.50994 -66.61541 37467 ft 522 kts 30°
2026-05-08 23:23 -52.44600 -66.55987 37451 ft 520 kts 30°
2026-05-08 23:23 -52.38251 -66.50474 37454 ft 520 kts 30°
2026-05-08 23:24 -52.31831 -66.44947 37448 ft 520 kts 30°
2026-05-08 23:24 -52.25460 -66.39458 37437 ft 519 kts 31°
2026-05-08 23:25 -52.19140 -66.34006 37518 ft 520 kts 29°
2026-05-08 23:25 -52.12693 -66.28603 37276 ft 519 kts 28°
2026-05-08 23:26 -52.09491 -66.25929 37430 ft 517 kts 29°
2026-05-08 23:26 -52.06318 -66.23286 37434 ft 520 kts 30°
2026-05-08 23:26 -51.99862 -66.17876 37445 ft 521 kts 30°
2026-05-08 23:27 -51.93535 -66.12452 37453 ft 518 kts 30°
2026-05-08 23:27 -51.87176 -66.07069 37436 ft 515 kts 30°
2026-05-08 23:28 -51.80835 -66.01784 37440 ft 519 kts 29°
2026-05-08 23:28 -51.74260 -65.96922 37438 ft 519 kts 22°
2026-05-08 23:29 -51.67542 -65.92928 37441 ft 517 kts 21°
2026-05-08 23:29 -51.60792 -65.89037 37438 ft 518 kts 20°
2026-05-08 23:30 -51.54059 -65.85112 37435 ft 517 kts 20°
2026-05-08 23:30 -51.47316 -65.81150 37438 ft 517 kts 22°
2026-05-08 23:31 -51.40580 -65.77171 37432 ft 516 kts 21°
2026-05-08 23:31 -51.33822 -65.73233 37433 ft 517 kts 21°
2026-05-08 23:32 -51.27105 -65.69259 37426 ft 517 kts 22°
2026-05-08 23:32 -51.20403 -65.65296 37415 ft 517 kts 22°
2026-05-08 23:33 -51.13644 -65.61308 37417 ft 518 kts 22°
2026-05-08 23:33 -51.06927 -65.57355 37413 ft 518 kts 22°
2026-05-08 23:34 -51.00195 -65.53473 37410 ft 518 kts 21°
2026-05-08 23:34 -50.93424 -65.49568 37416 ft 516 kts 22°
2026-05-08 23:35 -50.86748 -65.45667 37421 ft 514 kts 22°
2026-05-08 23:35 -50.80035 -65.41730 37417 ft 516 kts 23°
2026-05-08 23:36 -50.73304 -65.37849 37415 ft 515 kts 21°
2026-05-08 23:36 -50.66534 -65.34154 37404 ft 516 kts 20°
2026-05-08 23:37 -50.59832 -65.30324 37427 ft 517 kts 22°
2026-05-08 23:37 -50.53095 -65.26375 37404 ft 515 kts 22°
2026-05-08 23:38 -50.46398 -65.22497 37407 ft 518 kts 21°
2026-05-08 23:38 -50.39662 -65.18653 37379 ft 516 kts 22°
2026-05-08 23:39 -50.32929 -65.14847 37393 ft 513 kts 21°
2026-05-08 23:39 -50.26199 -65.11103 37396 ft 516 kts 21°
2026-05-08 23:40 -50.19450 -65.07314 37380 ft 515 kts 21°
2026-05-08 23:40 -50.12766 -65.03551 37370 ft 511 kts 23°
2026-05-08 23:41 -50.06092 -64.99792 37369 ft 514 kts 22°
2026-05-08 23:41 -49.99361 -64.96031 37374 ft 514 kts 22°
2026-05-08 23:42 -49.92697 -64.92296 37402 ft 511 kts 22°
2026-05-08 23:42 -49.85992 -64.88506 37390 ft 510 kts 22°
2026-05-08 23:43 -49.79348 -64.84863 37386 ft 508 kts 22°
2026-05-08 23:43 -49.72738 -64.81277 37385 ft 507 kts 22°
2026-05-08 23:44 -49.66092 -64.77666 37380 ft 507 kts 22°
2026-05-08 23:44 -49.59471 -64.74036 37373 ft 505 kts 22°
2026-05-08 23:45 -49.52898 -64.70441 37361 ft 502 kts 22°
2026-05-08 23:45 -49.46312 -64.66860 37363 ft 503 kts 22°
2026-05-08 23:46 -49.39721 -64.63296 37367 ft 503 kts 22°
2026-05-08 23:46 -49.33188 -64.59760 37377 ft 500 kts 22°
2026-05-08 23:47 -49.26824 -64.56294 37360 ft 497 kts 22°
2026-05-08 23:47 -49.20323 -64.52784 37357 ft 498 kts 22°
2026-05-08 23:48 -49.13814 -64.49297 37363 ft 496 kts 22°
2026-05-08 23:48 -49.07299 -64.45799 37362 ft 496 kts 22°
2026-05-08 23:49 -49.00832 -64.42378 37344 ft 491 kts 21°
2026-05-08 23:49 -48.94401 -64.38973 37344 ft 492 kts 22°
2026-05-08 23:50 -48.88018 -64.35566 37334 ft 490 kts 22°
2026-05-08 23:50 -48.81609 -64.32157 37325 ft 487 kts 21°
2026-05-08 23:51 -48.75232 -64.28778 37329 ft 488 kts 20°
2026-05-08 23:51 -48.68800 -64.25383 37315 ft 486 kts 21°
2026-05-08 23:52 -48.62466 -64.22059 37317 ft 484 kts 21°
2026-05-08 23:52 -48.56129 -64.18741 37313 ft 484 kts 21°
2026-05-08 23:53 -48.49769 -64.15402 37307 ft 483 kts 21°
2026-05-08 23:53 -48.43488 -64.12131 37297 ft 481 kts 21°
2026-05-08 23:54 -48.37175 -64.08855 37304 ft 481 kts 21°
2026-05-08 23:55 -48.27698 -64.03962 37301 ft 480 kts 21°
2026-05-08 23:55 -48.21451 -64.00738 37292 ft 478 kts 21°
2026-05-08 23:56 -48.15161 -63.97498 37281 ft 479 kts 21°
2026-05-08 23:56 -48.08866 -63.94263 37278 ft 476 kts 21°
2026-05-08 23:57 -48.02586 -63.91040 37267 ft 483 kts 21°
2026-05-08 23:57 -47.96239 -63.87787 37263 ft 484 kts 21°
2026-05-08 23:58 -47.89889 -63.84552 37263 ft 482 kts 21°
2026-05-08 23:58 -47.83560 -63.81332 37261 ft 481 kts 22°
2026-05-08 23:59 -47.77240 -63.78126 37247 ft 481 kts 21°
2026-05-08 23:59 -47.70958 -63.74949 37250 ft 481 kts 21°
2026-05-09 00:00 -47.64603 -63.71740 37243 ft 481 kts 21°
2026-05-09 00:00 -47.58299 -63.68567 37234 ft 479 kts 21°
2026-05-09 00:01 -47.52018 -63.65416 37230 ft 479 kts 21°
2026-05-09 00:01 -47.45694 -63.62250 37224 ft 480 kts 21°
2026-05-09 00:02 -47.39386 -63.59096 37229 ft 478 kts 21°
2026-05-09 00:02 -47.33120 -63.55974 37226 ft 481 kts 21°
2026-05-09 00:03 -47.26751 -63.52805 37200 ft 481 kts 20°
2026-05-09 00:03 -47.20464 -63.49685 37208 ft 481 kts 20°
2026-05-09 00:04 -47.14143 -63.46555 37208 ft 480 kts 20°
2026-05-09 00:04 -47.07803 -63.43423 37212 ft 479 kts 20°
2026-05-09 00:05 -47.01553 -63.40351 37193 ft 478 kts 20°
2026-05-09 00:05 -46.95216 -63.37253 37200 ft 479 kts 20°
2026-05-09 00:06 -46.89072 -63.34248 37196 ft 476 kts 19°
2026-05-09 00:06 -46.82775 -63.31192 37193 ft 476 kts 19°
2026-05-09 00:07 -46.76540 -63.28173 37187 ft 474 kts 19°
2026-05-09 00:07 -46.70330 -63.25144 37167 ft 473 kts 19°
2026-05-09 00:08 -46.64095 -63.22103 37164 ft 472 kts 19°
2026-05-09 00:08 -46.57863 -63.19081 37153 ft 471 kts 18°
2026-05-09 00:09 -46.51698 -63.16111 37146 ft 468 kts 19°
2026-05-09 00:09 -46.45546 -63.13153 37151 ft 465 kts 19°
2026-05-09 00:10 -46.39431 -63.10217 37143 ft 464 kts 19°
2026-05-09 00:10 -46.33311 -63.07286 37148 ft 463 kts 19°
2026-05-09 00:11 -46.27165 -63.04345 37127 ft 465 kts 19°
2026-05-09 00:11 -46.21085 -63.01448 37119 ft 460 kts 19°
2026-05-09 00:12 -46.15006 -62.98559 37127 ft 462 kts 19°
2026-05-09 00:12 -46.08927 -62.95672 37109 ft 461 kts 19°
2026-05-09 00:13 -46.02846 -62.92797 37110 ft 459 kts 19°
2026-05-09 00:13 -45.96799 -62.89937 37120 ft 461 kts 19°
2026-05-09 00:14 -45.90719 -62.87069 37127 ft 459 kts 20°
2026-05-09 00:14 -45.84646 -62.84206 37114 ft 460 kts 20°
2026-05-09 00:15 -45.78578 -62.81363 37104 ft 456 kts 19°
2026-05-09 00:15 -45.72528 -62.78544 37104 ft 459 kts 19°
2026-05-09 00:16 -45.66474 -62.75719 37098 ft 457 kts 19°
2026-05-09 00:16 -45.60457 -62.72909 37085 ft 456 kts 19°
2026-05-09 00:17 -45.54446 -62.70113 37076 ft 455 kts 20°
2026-05-09 00:17 -45.48449 -62.67334 37070 ft 454 kts 19°
2026-05-09 00:18 -45.42413 -62.64542 37070 ft 457 kts 19°
2026-05-09 00:18 -45.36414 -62.61770 37058 ft 454 kts 19°
2026-05-09 00:19 -45.30407 -62.59006 37064 ft 452 kts 19°
2026-05-09 00:19 -45.24401 -62.56243 37045 ft 454 kts 20°
2026-05-09 00:20 -45.18456 -62.53512 37050 ft 451 kts 20°
2026-05-09 00:20 -45.12451 -62.50769 37053 ft 453 kts 19°
2026-05-09 00:21 -45.06473 -62.48044 37037 ft 452 kts 20°
2026-05-09 00:21 -45.00477 -62.45318 37033 ft 451 kts 20°
2026-05-09 00:22 -44.94535 -62.42622 37030 ft 451 kts 20°
2026-05-09 00:22 -44.88578 -62.39921 37014 ft 449 kts 20°
2026-05-09 00:23 -44.82617 -62.37220 37009 ft 449 kts 20°
2026-05-09 00:23 -44.76695 -62.34544 37002 ft 449 kts 19°
2026-05-09 00:24 -44.70743 -62.31868 37005 ft 449 kts 19°
2026-05-09 00:24 -44.64829 -62.29205 37004 ft 447 kts 19°
2026-05-09 00:25 -44.58905 -62.26539 36997 ft 447 kts 19°
2026-05-09 00:25 -44.53023 -62.23908 36996 ft 446 kts 20°
2026-05-09 00:26 -44.47121 -62.21275 36987 ft 445 kts 19°
2026-05-09 00:26 -44.41184 -62.18630 36995 ft 448 kts 20°
2026-05-09 00:27 -44.35290 -62.16000 36978 ft 446 kts 20°
2026-05-09 00:27 -44.29384 -62.13367 36966 ft 445 kts 19°
2026-05-09 00:28 -44.23489 -62.10759 36953 ft 444 kts 19°
2026-05-09 00:28 -44.17627 -62.08179 36963 ft 444 kts 19°
2026-05-09 00:29 -44.11755 -62.05592 36974 ft 443 kts 19°
2026-05-09 00:29 -44.05906 -62.03009 36954 ft 442 kts 20°
2026-05-09 00:30 -44.00016 -62.00420 36955 ft 442 kts 19°
2026-05-09 00:30 -43.94179 -61.97861 36946 ft 443 kts 19°
2026-05-09 00:31 -43.88301 -61.95290 36935 ft 442 kts 20°
2026-05-09 00:31 -43.82454 -61.92736 36929 ft 444 kts 20°
2026-05-09 00:32 -43.76566 -61.90170 36928 ft 443 kts 20°
2026-05-09 00:32 -43.70676 -61.87605 36906 ft 443 kts 20°
2026-05-09 00:33 -43.64798 -61.85057 36908 ft 442 kts 20°
2026-05-09 00:33 -43.58948 -61.82525 36923 ft 444 kts 20°
2026-05-09 00:34 -43.53029 -61.79969 36913 ft 443 kts 20°
2026-05-09 00:34 -43.47176 -61.77446 36906 ft 442 kts 20°
2026-05-09 00:35 -43.41300 -61.74923 36901 ft 443 kts 20°
2026-05-09 00:35 -43.35412 -61.72392 36905 ft 444 kts 20°
2026-05-09 00:36 -43.29549 -61.69872 36885 ft 443 kts 20°
2026-05-09 00:36 -43.23644 -61.67350 36883 ft 443 kts 20°
2026-05-09 00:37 -43.17761 -61.64844 36882 ft 444 kts 20°
2026-05-09 00:37 -43.11863 -61.62332 36874 ft 443 kts 20°
2026-05-09 00:38 -43.05979 -61.59830 36870 ft 444 kts 20°
2026-05-09 00:38 -43.00082 -61.57334 36863 ft 444 kts 20°
2026-05-09 00:39 -42.94192 -61.54847 36865 ft 444 kts 20°
2026-05-09 00:39 -42.88317 -61.52373 36839 ft 444 kts 20°
2026-05-09 00:40 -42.82409 -61.49876 36834 ft 445 kts 20°
2026-05-09 00:40 -42.76486 -61.47379 36837 ft 444 kts 20°
2026-05-09 00:41 -42.67654 -61.43663 36825 ft 444 kts 20°
2026-05-09 00:41 -42.64729 -61.42438 37017 ft 445 kts 20°
2026-05-09 00:41 -42.61756 -61.41192 36892 ft 446 kts 20°
2026-05-09 00:42 -42.55920 -61.38755 36756 ft 435 kts 20°
2026-05-09 00:42 -42.50090 -61.36324 37005 ft 443 kts 20°
2026-05-09 00:43 -42.47110 -61.35080 36865 ft 447 kts 20°
2026-05-09 00:43 -42.44197 -61.33869 36828 ft 441 kts 20°
2026-05-09 00:43 -42.38348 -61.31445 36815 ft 438 kts 20°
2026-05-09 00:44 -42.32512 -61.29021 36801 ft 442 kts 20°
2026-05-09 00:44 -42.26665 -61.26598 36799 ft 440 kts 20°
2026-05-09 00:45 -42.20784 -61.24174 36784 ft 442 kts 20°
2026-05-09 00:45 -42.14914 -61.21760 36786 ft 441 kts 20°
2026-05-09 00:46 -42.09067 -61.19354 36788 ft 441 kts 20°
2026-05-09 00:46 -42.03178 -61.16938 36778 ft 441 kts 20°
2026-05-09 00:47 -41.97333 -61.14532 36773 ft 441 kts 20°
2026-05-09 00:47 -41.91503 -61.12146 36772 ft 441 kts 20°
2026-05-09 00:48 -41.85636 -61.09748 36767 ft 441 kts 20°
2026-05-09 00:48 -41.79749 -61.07346 36763 ft 442 kts 20°
2026-05-09 00:49 -41.73872 -61.04966 36755 ft 442 kts 20°
2026-05-09 00:49 -41.68003 -61.02588 36757 ft 443 kts 20°
2026-05-09 00:50 -41.62123 -61.00204 36754 ft 442 kts 20°
2026-05-09 00:50 -41.56229 -60.97819 36735 ft 443 kts 20°
2026-05-09 00:51 -41.50359 -60.95452 36731 ft 442 kts 19°
2026-05-09 00:51 -41.44479 -60.93085 36723 ft 442 kts 20°
2026-05-09 00:52 -41.38584 -60.90714 36727 ft 443 kts 20°
2026-05-09 00:52 -41.32674 -60.88344 36727 ft 441 kts 19°
2026-05-09 00:53 -41.26790 -60.85985 36719 ft 443 kts 19°
2026-05-09 00:53 -41.20925 -60.83639 36716 ft 442 kts 19°
2026-05-09 00:54 -41.15001 -60.81275 36723 ft 444 kts 19°
2026-05-09 00:54 -41.09106 -60.78929 36726 ft 446 kts 19°
2026-05-09 00:55 -41.03153 -60.76561 36714 ft 444 kts 19°
2026-05-09 00:55 -40.97272 -60.74229 36716 ft 443 kts 19°
2026-05-09 00:56 -40.91347 -60.71890 36711 ft 443 kts 19°
2026-05-09 00:56 -40.85446 -60.69556 36700 ft 443 kts 19°
2026-05-09 00:57 -40.79556 -60.67233 36702 ft 444 kts 19°
2026-05-09 00:57 -40.73633 -60.64902 36700 ft 444 kts 19°
2026-05-09 00:58 -40.67730 -60.62574 36696 ft 444 kts 19°
2026-05-09 00:58 -40.61782 -60.60232 36687 ft 446 kts 19°
2026-05-09 00:59 -40.55852 -60.57910 36685 ft 445 kts 19°
2026-05-09 00:59 -40.49923 -60.55595 36687 ft 445 kts 19°
2026-05-09 01:00 -40.43996 -60.53200 36681 ft 445 kts 20°
2026-05-09 01:00 -40.38141 -60.50692 36677 ft 443 kts 20°
2026-05-09 01:01 -40.32278 -60.48169 36684 ft 445 kts 20°
2026-05-09 01:01 -40.26371 -60.45655 36680 ft 445 kts 20°
2026-05-09 01:02 -40.20477 -60.43162 36675 ft 445 kts 20°
2026-05-09 01:02 -40.14568 -60.40669 36668 ft 446 kts 20°
2026-05-09 01:03 -40.08700 -60.38199 36674 ft 445 kts 20°
2026-05-09 01:03 -40.02799 -60.35718 36676 ft 444 kts 20°
2026-05-09 01:04 -39.96917 -60.33252 36672 ft 445 kts 19°
2026-05-09 01:04 -39.90984 -60.30771 36670 ft 446 kts 19°
2026-05-09 01:05 -39.85148 -60.28327 36674 ft 446 kts 20°
2026-05-09 01:06 -39.76224 -60.24617 36681 ft 448 kts 19°
2026-05-09 01:06 -39.70291 -60.22154 36678 ft 449 kts 19°
2026-05-09 01:07 -39.64310 -60.19671 36672 ft 451 kts 19°
2026-05-09 01:07 -39.58367 -60.17207 36666 ft 448 kts 19°
2026-05-09 01:08 -39.52424 -60.14751 36672 ft 449 kts 19°
2026-05-09 01:08 -39.46450 -60.12286 36666 ft 450 kts 19°
2026-05-09 01:09 -39.40503 -60.09837 36663 ft 449 kts 19°
2026-05-09 01:09 -39.34505 -60.07371 36661 ft 451 kts 19°
2026-05-09 01:10 -39.28538 -60.04921 36666 ft 451 kts 18°
2026-05-09 01:10 -39.22542 -60.02465 36664 ft 451 kts 18°
2026-05-09 01:11 -39.16581 -60.00024 36658 ft 450 kts 18°
2026-05-09 01:11 -39.10597 -59.97581 36656 ft 450 kts 18°
2026-05-09 01:12 -39.04644 -59.95156 36658 ft 449 kts 18°
2026-05-09 01:12 -38.98678 -59.92728 36665 ft 449 kts 18°
2026-05-09 01:13 -38.92722 -59.90309 36670 ft 450 kts 18°
2026-05-09 01:13 -38.86829 -59.87919 36673 ft 450 kts 18°
2026-05-09 01:14 -38.80908 -59.85523 36672 ft 450 kts 18°
2026-05-09 01:14 -38.74953 -59.83118 36668 ft 450 kts 18°
2026-05-09 01:15 -38.68954 -59.80700 36666 ft 450 kts 18°
2026-05-09 01:15 -38.63002 -59.78303 36665 ft 451 kts 18°
2026-05-09 01:16 -38.57019 -59.75899 36666 ft 451 kts 18°
2026-05-09 01:16 -38.51022 -59.73493 36667 ft 451 kts 17°
2026-05-09 01:17 -38.42046 -59.69899 36669 ft 451 kts 17°
2026-05-09 01:17 -38.36035 -59.67500 36668 ft 452 kts 17°
2026-05-09 01:18 -38.30046 -59.65112 36664 ft 451 kts 17°
2026-05-09 01:18 -38.24076 -59.62738 36669 ft 450 kts 17°
2026-05-09 01:19 -38.18087 -59.60362 36662 ft 451 kts 17°
2026-05-09 01:19 -38.12072 -59.57979 36667 ft 451 kts 17°
2026-05-09 01:20 -38.06106 -59.55620 36664 ft 450 kts 17°
2026-05-09 01:20 -38.00124 -59.53258 36670 ft 450 kts 17°
2026-05-09 01:21 -37.94130 -59.50895 36660 ft 450 kts 17°
2026-05-09 01:21 -37.88220 -59.48569 36664 ft 449 kts 16°
2026-05-09 01:22 -37.82349 -59.46262 36670 ft 449 kts 16°
2026-05-09 01:22 -37.76384 -59.43922 36672 ft 448 kts 16°
2026-05-09 01:23 -37.70432 -59.41592 36667 ft 447 kts 16°
2026-05-09 01:23 -37.64482 -59.39266 36669 ft 446 kts 16°
2026-05-09 01:24 -37.58566 -59.36956 36662 ft 446 kts 16°
2026-05-09 01:24 -37.52631 -59.34645 36666 ft 446 kts 15°
2026-05-09 01:25 -37.46705 -59.32340 36674 ft 445 kts 15°
2026-05-09 01:25 -37.40783 -59.30040 36684 ft 445 kts 15°
2026-05-09 01:26 -37.34877 -59.27750 36687 ft 444 kts 15°
2026-05-09 01:26 -37.28976 -59.25467 36694 ft 443 kts 15°
2026-05-09 01:27 -37.23094 -59.23191 36693 ft 443 kts 16°
2026-05-09 01:27 -37.17302 -59.20497 36517 ft 448 kts 21°
2026-05-09 01:28 -37.14426 -59.18968 36130 ft 450 kts 22°
2026-05-09 01:28 -37.11554 -59.17403 35715 ft 447 kts 22°
2026-05-09 01:28 -37.08723 -59.15854 35300 ft 444 kts 22°
2026-05-09 01:28 -37.05910 -59.14321 34887 ft 441 kts 22°
2026-05-09 01:29 -37.03117 -59.12811 34477 ft 439 kts 22°
2026-05-09 01:29 -37.00297 -59.11298 34081 ft 440 kts 22°
2026-05-09 01:29 -36.97487 -59.09800 33639 ft 442 kts 22°
2026-05-09 01:29 -36.94630 -59.08287 33165 ft 443 kts 21°
2026-05-09 01:30 -36.91829 -59.06807 32673 ft 444 kts 21°
2026-05-09 01:30 -36.88977 -59.05306 32171 ft 445 kts 21°
2026-05-09 01:30 -36.86235 -59.03865 31692 ft 447 kts 21°
2026-05-09 01:30 -36.83397 -59.02377 31196 ft 448 kts 21°
2026-05-09 01:31 -36.80498 -59.00858 30688 ft 448 kts 20°
2026-05-09 01:31 -36.77638 -58.99361 30189 ft 448 kts 20°
2026-05-09 01:31 -36.74781 -58.97867 29657 ft 449 kts 20°
2026-05-09 01:31 -36.71869 -58.96346 29119 ft 451 kts 20°
2026-05-09 01:32 -36.69001 -58.94850 28591 ft 449 kts 20°
2026-05-09 01:32 -36.66148 -58.93361 28054 ft 444 kts 20°
2026-05-09 01:32 -36.63299 -58.91874 27523 ft 439 kts 20°
2026-05-09 01:32 -36.60506 -58.90418 26992 ft 435 kts 20°
2026-05-09 01:33 -36.57700 -58.88958 26464 ft 432 kts 20°
2026-05-09 01:33 -36.54969 -58.87538 25948 ft 430 kts 20°
2026-05-09 01:33 -36.52199 -58.86100 25423 ft 428 kts 20°
2026-05-09 01:33 -36.49394 -58.84853 24905 ft 424 kts 14°
2026-05-09 01:34 -36.46593 -58.83941 24416 ft 420 kts 10°
2026-05-09 01:34 -36.43733 -58.83174 23915 ft 418 kts
2026-05-09 01:34 -36.40877 -58.82459 23422 ft 416 kts
2026-05-09 01:34 -36.38035 -58.81745 22949 ft 414 kts
2026-05-09 01:35 -36.35261 -58.81022 22478 ft 410 kts
2026-05-09 01:35 -36.32483 -58.80270 21999 ft 406 kts 10°
2026-05-09 01:35 -36.29732 -58.79502 21519 ft 403 kts 11°
2026-05-09 01:35 -36.27010 -58.78728 21038 ft 399 kts 11°
2026-05-09 01:36 -36.24307 -58.77951 20554 ft 395 kts 11°
2026-05-09 01:36 -36.21654 -58.77183 20072 ft 391 kts 11°
2026-05-09 01:36 -36.19026 -58.76420 19590 ft 388 kts 11°
2026-05-09 01:36 -36.16387 -58.75652 19099 ft 385 kts 12°
2026-05-09 01:37 -36.13794 -58.74898 18612 ft 382 kts 12°
2026-05-09 01:37 -36.11220 -58.74149 18130 ft 378 kts 12°
2026-05-09 01:37 -36.08678 -58.73410 17648 ft 374 kts 12°
2026-05-09 01:37 -36.06150 -58.72675 17165 ft 372 kts 12°
2026-05-09 01:38 -36.03648 -58.71949 16684 ft 370 kts 12°
2026-05-09 01:38 -36.01132 -58.71220 16197 ft 368 kts 12°
2026-05-09 01:38 -35.98651 -58.70501 15711 ft 365 kts 12°
2026-05-09 01:38 -35.96202 -58.69791 15225 ft 363 kts 12°
2026-05-09 01:39 -35.93735 -58.69076 14726 ft 361 kts 12°
2026-05-09 01:39 -35.91282 -58.68367 14238 ft 357 kts 12°
2026-05-09 01:39 -35.88898 -58.67678 13795 ft 352 kts 12°
2026-05-09 01:39 -35.86516 -58.66988 13343 ft 347 kts 12°
2026-05-09 01:40 -35.84191 -58.66317 12914 ft 342 kts 12°
2026-05-09 01:40 -35.81881 -58.65649 12514 ft 337 kts 11°
2026-05-09 01:40 -35.79600 -58.64991 12112 ft 332 kts 11°
2026-05-09 01:40 -35.77449 -58.64370 11726 ft 329 kts 11°
2026-05-09 01:41 -35.75212 -58.63725 11331 ft 324 kts 12°
2026-05-09 01:41 -35.73046 -58.63100 11034 ft 317 kts 11°
2026-05-09 01:41 -35.70927 -58.62490 10779 ft 309 kts 11°
2026-05-09 01:41 -35.68838 -58.61889 10523 ft 302 kts 11°
2026-05-09 01:42 -35.66801 -58.61303 10267 ft 295 kts 11°
2026-05-09 01:42 -35.64820 -58.60734 10013 ft 290 kts 11°
2026-05-09 01:42 -35.62868 -58.60177 9761 ft 287 kts 11°
2026-05-09 01:42 -35.60905 -58.59617 9508 ft 287 kts 11°
2026-05-09 01:43 -35.58947 -58.59057 9254 ft 288 kts 11°
2026-05-09 01:43 -35.57003 -58.58498 8998 ft 286 kts 11°
2026-05-09 01:43 -35.55075 -58.57944 8746 ft 285 kts 11°
2026-05-09 01:43 -35.53125 -58.57384 8490 ft 285 kts 11°
2026-05-09 01:44 -35.51185 -58.56829 8232 ft 285 kts 10°
2026-05-09 01:44 -35.49252 -58.56278 7975 ft 284 kts 10°
2026-05-09 01:44 -35.47331 -58.55730 7717 ft 282 kts 10°
2026-05-09 01:44 -35.45426 -58.55186 7461 ft 281 kts 10°
2026-05-09 01:45 -35.43516 -58.54640 7205 ft 282 kts 10°
2026-05-09 01:45 -35.41612 -58.54097 6951 ft 281 kts 10°
2026-05-09 01:45 -35.39679 -58.53544 6687 ft 280 kts
2026-05-09 01:45 -35.37785 -58.53005 6432 ft 280 kts
2026-05-09 01:46 -35.35891 -58.52465 6173 ft 278 kts
2026-05-09 01:46 -35.33994 -58.51923 5914 ft 277 kts
2026-05-09 01:46 -35.32129 -58.51392 5654 ft 274 kts
2026-05-09 01:46 -35.30263 -58.50860 5397 ft 274 kts
2026-05-09 01:47 -35.28389 -58.50325 5138 ft 274 kts
2026-05-09 01:47 -35.26540 -58.49795 4879 ft 273 kts
2026-05-09 01:47 -35.24678 -58.49262 4618 ft 272 kts
2026-05-09 01:47 -35.22855 -58.48742 4362 ft 271 kts
2026-05-09 01:48 -35.21006 -58.48217 4102 ft 270 kts
2026-05-09 01:48 -35.19189 -58.47701 3846 ft 269 kts
2026-05-09 01:48 -35.17346 -58.47179 3587 ft 269 kts
2026-05-09 01:48 -35.15525 -58.46662 3328 ft 267 kts
2026-05-09 01:49 -35.13723 -58.46149 3071 ft 265 kts
2026-05-09 01:49 -35.11959 -58.45645 2954 ft 255 kts
2026-05-09 01:49 -35.10273 -58.45162 2952 ft 244 kts
2026-05-09 01:49 -35.08608 -58.44690 2968 ft 241 kts
2026-05-09 01:50 -35.07003 -58.44344 2958 ft 226 kts 355°
2026-05-09 01:50 -35.05530 -58.44551 2991 ft 204 kts 335°
2026-05-09 01:50 -35.04183 -58.45126 2968 ft 203 kts 330°
2026-05-09 01:50 -35.02869 -58.45715 2956 ft 198 kts 333°
2026-05-09 01:51 -35.01580 -58.46188 2968 ft 187 kts 334°
2026-05-09 01:51 -35.00346 -58.46619 2969 ft 182 kts 334°
2026-05-09 01:51 -34.99146 -58.47043 2969 ft 177 kts 334°
2026-05-09 01:51 -34.97990 -58.47443 2971 ft 169 kts 333°
2026-05-09 01:52 -34.96833 -58.47853 2945 ft 176 kts 333°
2026-05-09 01:52 -34.95645 -58.48268 2703 ft 175 kts 334°
2026-05-09 01:52 -34.94505 -58.48657 2464 ft 164 kts 334°
2026-05-09 01:52 -34.93424 -58.49030 2251 ft 156 kts 334°
2026-05-09 01:53 -34.92388 -58.49391 2011 ft 155 kts 333°
2026-05-09 01:53 -34.91357 -58.49750 1790 ft 149 kts 333°
2026-05-09 01:53 -34.90386 -58.50084 1593 ft 143 kts 333°
2026-05-09 01:53 -34.89433 -58.50412 1386 ft 137 kts 334°
2026-05-09 01:54 -34.88569 -58.50710 1243 ft 132 kts 335°
2026-05-09 01:54 -34.87677 -58.51025 1029 ft 134 kts 336°
2026-05-09 01:54 -34.86791 -58.51333 845 ft 133 kts 338°
2026-05-09 01:54 -34.85889 -58.51641 654 ft 133 kts 338°
2026-05-09 01:55 -34.84997 -58.51952 489 ft 135 kts 339°
2026-05-09 01:55 -34.84096 -58.52266 290 ft 132 kts 340°
2026-05-09 01:55 -34.83200 -58.52576 89 ft 131 kts 342°
2026-05-09 01:55 -34.82432 -58.52843 73 ft 85 kts 345°
2026-05-09 01:56 -34.82089 -58.52963 73 ft 18 kts 345°
2026-05-09 01:56 -34.82019 -58.53049 73 ft 13 kts 285°
2026-05-09 01:56 -34.82007 -58.53113 73 ft 0 kts 283°
2026-05-09 01:58 -34.82005 -58.53124 73 ft 5 kts 283°
2026-05-09 01:58 -34.81991 -58.53193 73 ft 10 kts 284°
2026-05-09 01:59 -34.81969 -58.53302 73 ft 15 kts 284°
2026-05-09 01:59 -34.81941 -58.53444 73 ft 17 kts 284°
2026-05-09 01:59 -34.81912 -58.53579 73 ft 14 kts 290°
2026-05-09 01:59 -34.81846 -58.53662 73 ft 14 kts 334°
2026-05-09 02:00 -34.81768 -58.53709 73 ft 11 kts 333°
2026-05-09 02:00 -34.81696 -58.53752 73 ft 7 kts 330°
2026-05-09 02:00 -34.81673 -58.53767 73 ft 3 kts 330°
2026-05-09 02:00 -34.81644 -58.53777 73 ft 6 kts
2026-05-09 02:01 -34.81598 -58.53736 73 ft 8 kts 42°
2026-05-09 02:01 -34.81566 -58.53714 73 ft 4 kts 347°
2026-05-09 02:01 -34.81538 -58.53748 73 ft 5 kts 320°
2026-05-09 02:01 -34.81505 -58.53776 73 ft 5 kts 327°
2026-05-09 02:02 -34.81494 -58.53785 73 ft 1 kts 326°